EST,Max TemperatureF,Mean TemperatureF,Min TemperatureF,Max Dew PointF,MeanDew PointF,Min DewpointF,Max Humidity, Mean Humidity, Min Humidity, Max Sea Level PressureIn, Mean Sea Level PressureIn, Min Sea Level PressureIn, Max VisibilityMiles, Mean VisibilityMiles, Min VisibilityMiles, Max Wind SpeedMPH, Mean Wind SpeedMPH, Max Gust SpeedMPH,PrecipitationIn, CloudCover, Events, WindDirDegrees
2012-11-1,44,43,41,41,40,36,96,86,76,29.64,29.54,29.45,10,8,2,21,13,28,0.28,8,Rain,258
2012-11-2,42,39,35,36,33,30,89,80,70,29.93,29.78,29.64,10,9,3,20,10,24,0.12,8,Rain-Snow,292
2012-11-3,42,39,35,34,30,28,89,77,64,30.11,30.02,29.91,10,10,6,20,10,25,T,7,,305
2012-11-4,36,35,33,31,27,25,89,77,64,30.14,30.12,30.09,10,9,3,13,7,16,0.01,8,Snow,317
2012-11-5,36,34,31,28,25,19,75,66,56,30.22,30.17,30.09,10,10,9,12,5,14,T,8,Snow,332
2012-11-6,41,36,30,25,21,18,72,59,45,30.21,30.15,30.06,10,10,10,14,7,20,0.00,4,,106
2012-11-7,41,34,27,27,23,21,81,65,48,30.12,30.09,30.06,10,10,10,17,6,20,0.00,4,,50
2012-11-8,42,33,24,28,23,21,88,66,43,30.18,30.13,30.09,10,10,10,12,4,15,0.00,1,,305
2012-11-9,47,39,30,40,34,26,89,75,60,30.20,30.17,30.13,10,8,5,22,7,28,0.01,7,Rain,254
2012-11-10,54,49,43,43,41,38,89,76,63,30.28,30.22,30.15,10,7,3,10,5,13,T,8,,121
2012-11-11,70,62,53,41,38,35,66,47,28,30.25,30.20,30.14,10,10,10,20,11,26,T,6,,192
2012-11-12,70,55,40,52,43,34,89,64,39,30.19,30.06,29.88,10,9,5,31,19,43,0.38,7,Rain,219
2012-11-13,41,38,35,31,23,19,70,61,52,30.56,30.40,30.21,10,10,10,22,9,31,T,8,Rain-Snow,289
2012-11-14,40,37,34,30,25,22,76,62,48,30.62,30.56,30.49,10,10,10,9,3,12,0.00,7,,82
2012-11-15,48,39,29,28,26,23,78,60,41,30.48,30.39,30.33,10,10,10,12,3,15,0.00,3,,62
2012-11-16,49,39,28,34,30,24,92,71,50,30.53,30.44,30.35,10,10,7,8,1,9,0.00,2,,202
2012-11-17,50,40,30,38,33,28,92,74,56,30.66,30.61,30.52,9,6,3,8,3,10,0.00,3,,119
2012-11-18,54,43,32,33,30,28,89,64,38,30.62,30.56,30.48,10,9,6,10,6,13,0.00,4,,83
2012-11-19,52,42,31,34,31,27,85,68,50,30.48,30.38,30.24,10,9,7,9,4,10,0.00,4,,129
2012-11-20,52,43,34,35,33,30,89,69,48,30.22,30.17,30.12,10,9,7,9,2,9,0.00,7,,57
2012-11-21,55,43,31,38,32,28,92,65,38,30.26,30.22,30.17,10,7,4,7,3,8,0.00,1,,178
2012-11-22,58,46,33,39,33,25,82,63,43,30.21,30.12,29.95,10,10,9,21,9,28,0.00,2,,189
2012-11-23,54,44,34,45,35,23,86,66,45,29.91,29.74,29.66,10,9,4,36,21,47,0.03,7,Rain-Snow,225
2012-11-24,37,34,31,27,22,18,72,60,48,29.97,29.87,29.77,10,10,7,31,17,40,T,7,Snow,270
2012-11-25,34,32,29,29,25,18,92,75,58,29.95,29.87,29.79,10,5,0,21,10,29,0.15,8,Fog-Snow,239
2012-11-26,37,34,31,25,23,18,75,63,51,30.25,30.11,29.91,10,10,10,20,12,26,0.00,7,,266
2012-11-27,36,33,29,25,20,18,75,61,47,30.31,30.27,30.25,10,10,10,12,5,15,0.00,6,,266
2012-11-28,37,34,30,28,23,17,72,62,51,30.27,30.21,30.17,10,8,2,22,11,29,0.02,7,Snow,236
2012-11-29,44,37,30,35,28,20,76,65,53,30.29,30.25,30.20,10,10,7,29,14,38,0.00,6,,256
2012-11-30,38,32,25,32,25,21,92,84,75,30.39,30.34,30.29,10,8,0,20,13,23,0.05,8,Fog-Snow,65